Flag for Canada Weather past 2 weeks in Saguenay, Quebec, Canada

Now
35 °F

Chilly.


Feels Like: 26 °F
Forecast: 30 / 41 °F
Wind: 12 mph from Southeast

Location: Jonquiere Airport

Current Time: Dec 25, 2014 at 8:06:14 AM

Latest Report: Dec 25, 2014 at 7:00 AM


Visibility: N/A

Pressure: 29.17 "Hg

Humidity: 97%

Dew point: 34 °F

Location of SaguenayLocation

Historic Weather in Saguenay — Graph

°F

Saguenay temperature yesterday

Maximum temperature yesterday: 35 °F (at 9:00 PM)
Minimum temperature yesterday: 28 °F (at 12:00 AM)
Average temperature yesterday: 33 °F

Past Weeks' High & Low Weather Summary

 TemperatureHumidityPressure
High36 °F (Dec 25, 6:00 AM)100% (Dec 12, 5:00 PM)30.51 "Hg (Dec 12, 5:00 PM)
Low-1 °F (Dec 20, 8:00 AM)57% (Dec 19, 1:00 PM)29.21 "Hg (Dec 25, 6:00 AM)
Average23 °F87%30.07 "Hg
* Reported Dec 10 6:00 AM — Dec 25 6:00 AM, Saguenay, Weather by CustomWeather, © 2014

Note: Actual official high and low records may vary slightly from our data, if they occured in-between our weather recording intervals... More about our weather records

Advertising

Saguenay weather history for previous 24 hours

 ConditionsComfort  
Time TempWeatherWind HumidityBarometerVisibility
6:00 AM
Dec 25
36 °FChilly.15 mph91%29.21 "HgN/A
5:00 AM35 °FChilly.13 mph91%29.23 "HgN/A
4:00 AM35 °FChilly.14 mph92%29.27 "HgN/A
3:00 AM35 °FChilly.14 mph94%29.36 "HgN/A
2:00 AM35 °FChilly.14 mph95%29.39 "HgN/A
1:00 AM35 °FChilly.13 mph95%29.42 "HgN/A
12:00 AM35 °FChilly.10 mph95%29.47 "HgN/A
11:00 PM
Dec 24
35 °FChilly.10 mph95%29.51 "HgN/A
10:00 PM35 °FChilly.10 mph93%29.56 "HgN/A
9:00 PM35 °FChilly.9 mph88%29.61 "HgN/A
8:00 PM34 °FChilly.10 mph89%29.64 "HgN/A
7:00 PM34 °FChilly.12 mph89%29.69 "HgN/A
6:00 PM34 °FChilly.12 mph89%29.72 "HgN/A
5:00 PM34 °FChilly.13 mph89%29.76 "HgN/A
4:00 PM34 °FChilly.9 mph90%29.78 "HgN/A
3:00 PM34 °FChilly.9 mph90%29.81 "HgN/A
2:00 PM34 °FChilly.10 mph89%29.84 "HgN/A
1:00 PM34 °FChilly.9 mph92%29.86 "HgN/A
12:00 PM33 °FChilly.10 mph94%29.91 "HgN/A
11:00 AM33 °FChilly.13 mph98%29.94 "HgN/A
10:00 AM33 °FChilly.12 mph90%29.98 "HgN/A
9:00 AM33 °FChilly.14 mph91%30.01 "HgN/A
8:00 AM33 °FChilly.12 mph92%30.03 "HgN/A
Weather by CustomWeather, © 2014

See weather overviewHow to use our weather pages